Location: Banska Bystrica
(48.7333°N, 19.1500°E)
Time: 12:54:43
(UTC+01:00)

ISS - Visible Passes

Search period start: 22 March 2019 00:00
Search period end: 01 April 2019 01:00
Orbit: 406 x 411 km, 51.6° (Epoch: 22 March)

Date Brightness Start Highest point End Pass type
(mag) Time Alt. Az. Time Alt. Az. Time Alt. Az.
22 Mar -3.0 19:38:07 10° SW 19:40:45 35° SSE 19:40:45 35° SSE visible
23 Mar -2.5 18:47:35 10° SSW 18:50:18 24° SE 18:52:25 14° E visible
23 Mar -2.2 20:23:18 10° WSW 20:25:12 31° WSW 20:25:12 31° WSW visible
24 Mar -3.9 19:32:17 10° WSW 19:35:34 72° SSE 19:36:40 38° E visible
24 Mar -0.6 21:09:02 10° W 21:09:26 13° W 21:09:26 13° W visible
25 Mar -3.4 18:41:23 10° SW 18:44:33 47° SSE 18:47:45 10° ENE visible
25 Mar -3.1 20:17:52 10° W 20:20:44 52° NW 20:20:44 52° NW visible
26 Mar -3.6 19:26:42 10° WSW 19:29:59 71° NNW 19:31:55 23° ENE visible
26 Mar -1.0 21:03:35 10° WNW 21:04:40 19° WNW 21:04:40 19° WNW visible
27 Mar -3.8 18:35:35 10° WSW 18:38:53 86° SSE 18:42:12 10° ENE visible
27 Mar -3.1 20:12:25 10° W 20:15:38 48° N 20:15:45 48° N visible
28 Mar -3.2 19:21:12 10° W 19:24:27 53° N 19:26:45 17° ENE visible
28 Mar -1.4 20:58:01 10° WNW 20:59:30 24° WNW 20:59:30 24° WNW visible
29 Mar -3.3 20:06:52 10° WNW 20:10:06 51° N 20:10:27 48° NNE visible
30 Mar -3.1 19:15:40 10° WNW 19:18:54 48° N 19:21:22 16° ENE visible
30 Mar -1.8 20:52:21 10° WNW 20:54:05 29° WNW 20:54:05 29° WNW visible
31 Mar -3.7 21:01:13 10° WNW 21:04:30 66° NNE 21:04:59 55° ENE visible
